SENTINEL-3A (41335 NORAD) Tracking and Keplerian Element Data

This shows tracking and keplerian element data for the satellite.

Feedback or suggestion? Click here.




ElementValue
Catalog41335
NameSENTINEL-3A
Epoch Orbit29069
Epoch Day259.41380134
Epoch Year2021
RAAN325.6315
Inclination98.6323
Eccentricity8.55E-05
Argument of Perigee91.4457
Mean Anonmoly268.6821
Mean Motion14.26734024
Decay Rate-1E-07
L11 41335U 16011A 21259.41380134 -.00000010 00000-0 14102-4 0 9992
L22 41335 98.6323 325.6315 0000855 91.4457 268.6821 14.26734024290694

Live tracking and technical data element details for SENTINEL-3A (NORAD 41335). SENTINEL-3A can be tracked NOW for your location showing map with azimuth and elevation plus other details from your city location.

Track the satellite on the map from your city or location and see movement details for azimuth, elevation, latitude, longitude, range, height, and movement on the map or in text.







IsCatalogInMostPopularTable: catalog: 41335, numindb: 641
Update: records affected: 1



GetName: 41335 SENTINEL-3A

Hit Count: updated at: Sat, 18 Sep 2021 10:28:45 GMT